Date String (YYYY-MM-DD hh:mm:ss) UTC,Instrument flags,absolute air pressure of the measurement (hPa),sample flow rate (lpm),inlet stack bypass flow (lpm),air temperature of the measurement (°C),ambient temperature measured by the external sensor (°C),aerosol sample conditioner tube jacket temperature (°C),OPC LED temperature (°C),internal box temperature (°C),relative humidity of the measurement (%),span deviation,mass concentration of particles derived from Lorenz-Mie calculation of OPC scattering (μg/m³),mass concentration of particles derived from Lorenz-Mie calculation of OPC scattering (μg/m³),mass concentration of particles derived from Lorenz-Mie calculation of OPC scattering (μg/m³)
DateTimeUTC,F1_M11,P_M11,Q1_M11,Q2_M11,T1_M11,T2_M11,T3_M11,T4_M11,T5_M11,U1_M11,ZSPAN_M11,X0_M11,X2_M11,X1_M11
2023-07-29 14:00:00,SystemResetWarning,0837.2,5.00,000.00,029.6,028.3,000.0,038.0,031.2,32.2,0000.0,0013.60,0005.38,0004.12
2023-07-29 14:01:00,SystemResetWarning,0837.2,4.99,000.00,029.6,028.4,000.0,038.0,031.2,32.5,0000.0,0014.62,0005.37,0004.10
2023-07-29 14:02:00,SystemResetWarning,0837.2,4.99,000.00,029.6,028.5,000.0,038.0,031.3,32.4,0000.0,0016.28,0005.39,0004.07
2023-07-29 14:03:00,SystemResetWarning,0837.2,5.00,000.00,029.7,028.5,000.0,038.0,031.3,32.4,0000.0,0017.03,0005.40,0004.06
2023-07-29 14:04:00,SystemResetWarning,0837.3,4.99,000.00,029.7,028.6,000.0,038.1,031.3,32.9,0000.0,0017.26,0005.41,0004.05
2023-07-29 14:05:00,SystemResetWarning,0837.3,5.00,000.00,029.7,028.6,000.0,038.1,031.4,33.0,0000.0,0017.43,0005.41,0004.03
2023-07-29 14:06:00,SystemResetWarning,0837.4,5.01,000.00,029.8,028.7,000.0,038.1,031.4,32.7,0000.0,0017.74,0005.39,0004.02
2023-07-29 14:07:00,SystemResetWarning,0837.4,5.00,000.00,029.8,028.5,000.0,038.1,031.4,32.7,0000.0,0017.82,0005.39,0004.01
2023-07-29 14:08:00,SystemResetWarning,0837.4,5.00,000.00,029.8,026.9,000.0,038.0,031.2,32.5,0000.0,0017.05,0005.42,0004.01
2023-07-29 14:09:00,SystemResetWarning,0837.4,5.01,000.00,029.7,026.1,000.0,037.9,031.0,32.8,0000.0,0016.61,0005.44,0004.01
2023-07-29 14:10:00,SystemResetWarning,0837.4,5.01,000.00,029.6,026.2,000.0,038.0,030.9,33.1,0000.0,0016.18,0005.43,0004.01
2023-07-29 14:11:00,SystemResetWarning,0837.4,4.99,000.00,029.5,026.5,000.0,038.0,030.9,33.4,0000.0,0016.20,0005.44,0004.01
2023-07-29 14:12:00,SystemResetWarning,0837.5,5.00,000.00,029.5,026.9,000.0,038.0,030.9,33.6,0000.0,0015.70,0005.43,0004.01
2023-07-29 14:13:00,SystemResetWarning,0837.6,5.00,000.00,029.5,027.2,000.0,038.0,031.0,33.2,0000.0,0013.87,0005.38,0004.02
2023-07-29 14:14:00,SystemResetWarning,0837.6,5.01,000.00,029.5,027.5,000.0,038.0,031.1,32.8,0000.0,0013.11,0005.40,0004.04
2023-07-29 14:15:00,SystemResetWarning,0837.6,5.00,000.00,029.6,027.7,000.0,038.0,031.1,32.6,0000.0,0013.90,0005.42,0004.04
2023-07-29 14:16:00,SystemResetWarning,0837.7,4.99,000.00,029.6,027.9,000.0,038.0,031.2,32.7,0000.0,0014.73,0005.45,0004.04
2023-07-29 14:17:00,SystemResetWarning,0837.6,5.00,000.00,029.6,028.0,000.0,038.0,031.2,33.1,0000.0,0014.21,0005.42,0004.04
2023-07-29 14:18:00,SystemResetWarning,0837.7,5.00,000.00,029.6,028.2,000.0,038.1,031.2,32.1,0000.0,0014.07,0005.41,0004.04
2023-07-29 14:19:00,SystemResetWarning,0837.8,5.00,000.00,029.7,028.3,000.0,038.1,031.3,32.4,0000.0,0014.27,0005.37,0004.04
2023-07-29 14:20:00,SystemResetWarning,0837.8,5.00,000.00,029.7,028.4,000.0,038.1,031.3,32.8,0000.0,0015.31,0005.31,0004.04
2023-07-29 14:21:00,SystemResetWarning,0837.8,4.99,000.00,029.7,028.1,000.0,038.1,031.3,32.8,0000.0,0015.94,0005.28,0004.03
2023-07-29 14:22:00,SystemResetWarning,0837.8,4.98,000.00,029.7,026.4,000.0,038.0,031.1,32.8,0000.0,0015.88,0005.24,0004.02
2023-07-29 14:23:00,SystemResetWarning,0837.8,5.01,000.00,029.6,025.2,000.0,037.9,030.8,32.3,0000.0,0016.55,0005.21,0004.00
2023-07-29 14:24:00,SystemResetWarning,0837.8,5.01,000.00,029.5,025.1,000.0,037.8,030.6,31.9,0000.0,0018.33,0005.27,0003.99
2023-07-29 14:25:00,SystemResetWarning,0837.8,5.00,000.00,029.3,025.4,000.0,037.8,030.5,32.3,0000.0,0018.37,0005.24,0003.96
2023-07-29 14:26:00,SystemResetWarning,0837.8,4.99,000.00,029.3,025.9,000.0,037.9,030.6,32.7,0000.0,0017.35,0005.17,0003.92
2023-07-29 14:27:00,SystemResetWarning,0837.8,5.00,000.00,029.3,026.3,000.0,037.9,030.7,32.9,0000.0,0017.05,0005.12,0003.90
2023-07-29 14:28:00,SystemResetWarning,0837.8,5.00,000.00,029.3,026.7,000.0,037.9,030.7,32.7,0000.0,0017.02,0005.05,0003.88
2023-07-29 14:29:00,SystemResetWarning,0838.0,4.99,000.00,029.3,027.0,000.0,037.9,030.8,32.7,0000.0,0016.91,0004.98,0003.85
2023-07-29 14:30:00,SystemResetWarning,0837.9,4.99,000.00,029.3,027.3,000.0,037.9,030.9,33.1,0000.0,0016.65,0004.95,0003.83
2023-07-29 14:31:00,SystemResetWarning,0838.0,4.99,000.00,029.3,027.5,000.0,037.9,030.9,32.6,0000.0,0015.45,0004.95,0003.82
2023-07-29 14:32:00,SystemResetWarning,0838.1,5.00,000.00,029.4,027.7,000.0,037.9,031.0,33.0,0000.0,0015.76,0004.94,0003.80
2023-07-29 14:33:00,SystemResetWarning,0838.2,5.00,000.00,029.4,027.9,000.0,037.9,031.0,33.1,0000.0,0015.96,0004.94,0003.79
2023-07-29 14:34:00,SystemResetWarning,0838.2,5.00,000.00,029.4,028.0,000.0,037.9,031.0,33.6,0000.0,0015.71,0004.93,0003.77
2023-07-29 14:35:00,SystemResetWarning,0838.2,5.00,000.00,029.4,028.2,000.0,037.9,031.1,32.9,0000.0,0014.87,0004.91,0003.75
2023-07-29 14:36:00,SystemResetWarning,0838.2,5.00,000.00,029.5,028.3,000.0,037.9,031.1,32.7,0000.0,0015.73,0004.89,0003.74
2023-07-29 14:37:00,SystemResetWarning,0838.2,4.99,000.00,029.5,028.3,000.0,037.9,031.2,33.0,0000.0,0015.56,0004.86,0003.72
2023-07-29 14:38:00,SystemResetWarning,0838.2,4.99,000.00,029.6,028.1,000.0,037.9,031.2,32.9,0000.0,0014.71,0004.82,0003.71
2023-07-29 14:39:00,SystemResetWarning,0838.2,5.00,000.00,029.5,026.6,000.0,037.8,031.0,33.0,0000.0,0014.62,0004.87,0003.71
2023-07-29 14:40:00,SystemResetWarning,0838.2,5.01,000.00,029.5,026.0,000.0,037.7,030.9,33.0,0000.0,0014.63,0004.95,0003.71
2023-07-29 14:41:00,SystemResetWarning,0838.2,5.01,000.00,029.4,026.1,000.0,037.7,030.7,33.3,0000.0,0014.61,0004.95,0003.71
2023-07-29 14:42:00,SystemResetWarning,0838.2,4.99,000.00,029.3,026.4,000.0,037.8,030.7,33.5,0000.0,0014.86,0004.94,0003.71
2023-07-29 14:43:00,SystemResetWarning,0838.2,5.00,000.00,029.3,026.7,000.0,037.8,030.8,33.8,0000.0,0014.60,0004.96,0003.72
2023-07-29 14:44:00,SystemResetWarning,0838.2,5.00,000.00,029.3,027.1,000.0,037.8,030.8,34.0,0000.0,0014.38,0004.96,0003.74
2023-07-29 14:45:00,SystemResetWarning,0838.2,5.00,000.00,029.4,027.3,000.0,037.8,030.9,34.1,0000.0,0014.07,0004.98,0003.75
2023-07-29 14:46:00,SystemResetWarning,0838.3,5.00,000.00,029.4,027.6,000.0,037.8,031.0,34.1,0000.0,0013.39,0004.95,0003.76
2023-07-29 14:47:00,SystemResetWarning,0838.3,4.98,000.00,029.4,027.8,000.0,037.8,031.0,33.9,0000.0,0012.43,0004.98,0003.79
2023-07-29 14:48:00,SystemResetWarning,0838.4,4.99,000.00,029.4,027.9,000.0,037.9,031.0,34.2,0000.0,0012.79,0005.03,0003.82
2023-07-29 14:49:00,SystemResetWarning,0838.4,5.01,000.00,029.5,028.1,000.0,037.9,031.1,34.5,0000.0,0013.32,0005.05,0003.83
2023-07-29 14:50:00,SystemResetWarning,0838.4,5.01,000.00,029.5,028.2,000.0,037.9,031.1,34.4,0000.0,0013.61,0005.03,0003.84
2023-07-29 14:51:00,SystemResetWarning,0838.4,5.00,000.00,029.5,028.3,000.0,037.9,031.2,34.3,0000.0,0013.87,0005.00,0003.85
2023-07-29 14:52:00,SystemResetWarning,0838.4,5.00,000.00,029.6,028.4,000.0,037.9,031.2,34.6,0000.0,0013.93,0005.02,0003.86
2023-07-29 14:53:00,SystemResetWarning,0838.4,4.98,000.00,029.6,027.2,000.0,037.8,031.1,34.3,0000.0,0013.66,0005.05,0003.87
2023-07-29 14:54:00,SystemResetWarning,0838.4,5.00,000.00,029.5,025.6,000.0,037.7,030.8,34.4,0000.0,0013.23,0005.05,0003.87
2023-07-29 14:55:00,SystemResetWarning,0838.4,5.00,000.00,029.4,025.1,000.0,037.6,030.7,34.5,0000.0,0013.37,0005.10,0003.87
2023-07-29 14:56:00,SystemResetWarning,0838.4,5.01,000.00,029.3,025.3,000.0,037.7,030.5,34.3,0000.0,0014.41,0005.09,0003.88
2023-07-29 14:57:00,SystemResetWarning,0838.5,5.00,000.00,029.2,025.7,000.0,037.7,030.5,34.3,0000.0,0015.99,0005.07,0003.88
2023-07-29 14:58:00,SystemResetWarning,0838.5,5.00,000.00,029.2,026.1,000.0,037.7,030.6,34.4,0000.0,0016.30,0005.08,0003.90
2023-07-29 14:59:00,SystemResetWarning,0838.6,5.00,000.00,029.2,026.5,000.0,037.7,030.7,34.4,0000.0,0016.24,0005.11,0003.91
